Погода в Эрмосильо

Мексика     29°05′43″N   110°57′38″W
темп.,
°C
ветер,
м/с
пор.,
м/с
влажн.,
%
обл.,
%
осадки,
мм/ч
давл.,
гПа
погр.,
м
17 августа, ср
ср1723:00+28всв91175100 9.1 1010284
02:00+26юв61077100 1.6 1010362
05:00+25в247999 2.9 1011254
08:00+27юв346890 0.0 1012500
11:00+31юв335384 0.0 10121078
14:00+33юз434599 0.0 10111716
17:00+34юз4445100 0.0 10091888
20:00+30зюз3464100 0.1 1011274
18 августа, чт
чт1823:00+29ссв1271100 3.8 101195
02:00+27св3379100 1.3 1011206
05:00+25ссв338897 6.3 1011141
08:00+25всв2384100 4.3 1012214
11:00+28ююв337372 4.7 1012609
14:00+31ююз436099 0.9 10101376
17:00+29ююв1270100 8.7 100978
20:00+26ююв3584100 5.8 1010330
19 августа, пт
пт1923:00+26в2384100 7.5 1010132
02:00+25св3486100 3.6 1009166
05:00+25св3486100 5.7 1008146
08:00+25всв3483100 1.6 1009215
11:00+28юв347365 6.9 1009529
14:00+29ююз236750 6.1 1008884
17:00+25з4593100 14.6 1007248
20:00+25ссв128770 3.5 1008114
20 августа, сб
сб2023:00+26вюв22846 6.4 100934
02:00+25вюв238328 1.4 100868
05:00+25в238487 2.1 100990
08:00+27вюв3571100 1.4 1010334
11:00+30ю456312 3.9 10111062
14:00+32ююв465680 3.7 10091579
17:00+29зюз246744 7.5 1009432
20:00+27зсз116845 0.3 101136
21 августа, вс
вс2123:00+27в227015 0.3 101226
02:00+26вюв237398 0.0 101251
05:00+26в237696 0.0 101386
08:00+27в357094 0.0 1014384
11:00+30ююв335345 0.0 10141266
14:00+33юз1245100 0.1 10122119
17:00+30зюз546147 0.5 1011290
20:00+29ююз126499 0.0 1012166